Regional Weather Roundup
Issued by NWS

Home | Current Version | Previous Version | Graphics & Text | Print | Product List | Glossary On
Versions: 1 2 3 4 5 6 7 8 9 10 11 12 13 14 15 16 17 18 19 20 21 22 23 24 25 26 27 28 29 30 31 32 33 34 35 36 37 38 39 40 41 42 43 44 45 46 47 48 49 50
000
ASUS43 KOAX 301610
RWRNE

WEATHER ROUNDUP FOR NEBRASKA
NATIONAL WEATHER SERVICE OMAHA NE
1000 AM CST FRI JAN 30 2015

NOTES: SATELLITE DATA IS BEING USED TO AUGMENT CLOUD COVER ABOVE
       12000 FEET.
       "FAIR" INDICATES FEW OR NO CLOUDS BELOW 12,000 FEET WITH NO
       SIGNIFICANT WEATHER AND/OR OBSTRUCTIONS TO VISIBILITY.

  * THESE STATIONS DO NOT REPORT WEATHER SUCH AS RAIN...SNOW OR FOG.

NEZ001>004-019>022-054>056-301700-
NEBRASKA PANHANDLE

CITY           SKY/WX    TMP DP  RH WIND       PRES   REMARKS
SCOTTSBLUFF    PTSUNNY   30  23  75 CALM      30.21S
ALLIANCE       CLOUDY    31  24  75 S6        30.20F WCI  25
CHADRON        PTSUNNY   35  22  58 SW5       30.22R WCI  31
KIMBALL        PTSUNNY   31  27  84 CALM      30.17F
SIDNEY         PTSUNNY   34  25  69 S7        30.21S WCI  28
$$

NEZ057>060-069>072-079>082-301700-
SOUTHWEST NEBRASKA

CITY           SKY/WX    TMP DP  RH WIND       PRES   REMARKS
NORTH PLATTE   PTSUNNY   34  25  69 S8        30.31F WCI  27
IMPERIAL       CLOUDY    33  24  69 SE10      30.27F WCI  25
LEXINGTON      PTSUNNY   29  24  83 SE7       30.37F WCI  22
MCCOOK         CLOUDY    32  26  78 SE5       30.35F WCI  27
OGALLALA       PTSUNNY   30  25  81 CALM      30.27F
$$

NEZ005>010-023>029-035>040-094-301700-
NORTH CENTRAL NEBRASKA

CITY           SKY/WX    TMP DP  RH WIND       PRES   REMARKS
VALENTINE      PTSUNNY   33  26  75 S12       30.25F WCI  24
AINSWORTH      PTSUNNY   31  24  73 S15       30.27F WCI  21
BROKEN BOW     PTSUNNY   30  23  75 S10       30.35F WCI  21
O`NEILL        PTSUNNY   29  26  89 S18       30.36F WCI  16
ORD            CLOUDY    26  22  84 S8        30.39F WCI  18
THEDFORD       CLOUDY    36  25  64 S12       30.28F WCI  28
$$

NEZ041-046>049-061>064-073>077-083>087-301700-
SOUTH CENTRAL NEBRASKA

CITY           SKY/WX    TMP DP  RH WIND       PRES   REMARKS
GRAND ISLAND     N/A     28  23  81 S12       30.45F WCI  18
AURORA         PTSUNNY   27  25  94 S8        30.46S WCI  18
HASTINGS       PTSUNNY   27  22  81 S9        30.43F WCI  18
HEBRON         MOSUNNY   30  24  79 S7        30.50S WCI  23
HOLDREGE       PTSUNNY   28  23  84 S12       30.40S WCI  17
KEARNEY *      PTSUNNY   28  25  86 S10       30.41F WCI  19
YORK           PTSUNNY   25  25 100 S8        30.48S WCI  16
$$

NEZ011>018-030>034-042>045-301700-
NORTHEAST NEBRASKA

CITY           SKY/WX    TMP DP  RH WIND       PRES   REMARKS
NORFOLK        MOSUNNY   26  23  88 S14       30.44F WCI  14
ALBION         PTSUNNY   26  23  87 S15       30.43F WCI  14
BLAIR          MOSUNNY   26  20  79 SE9       30.51S WCI  16
COLUMBUS *     MOSUNNY   27  19  74 S7        30.49S WCI  19
FREMONT        MOSUNNY   26  24  91 SE7       30.51S WCI  19
TEKAMAH        MOSUNNY   25  19  78 SE10      30.53F WCI  15
WAYNE          SUNNY     26  23  88 S13       30.47F WCI  15
$$

NEZ050>053-065>068-078-088>093-301700-
SOUTHEAST NEBRASKA

CITY           SKY/WX    TMP DP  RH WIND       PRES   REMARKS
LINCOLN        PTSUNNY   24  21  88 S3        30.53S FOG
OMAHA EPPLEY   MOSUNNY   24  18  77 S8        30.55S WCI  15
BEATRICE       MOSUNNY   24  22  91 S3        30.52F
FALLS CITY     SUNNY     25  21  85 SE3       30.55S
NEBRASKA CITY  MOSUNNY   25  20  82 S6        30.54S WCI  18
PLATTSMOUTH    MOSUNNY   24  20  82 SE3       30.53S
$$

NEZ044-045-051>053-067-301700-
OMAHA AREA

CITY           SKY/WX    TMP DP  RH WIND       PRES   REMARKS
OMAHA EPPLEY   MOSUNNY   24  18  77 S8        30.55S WCI  15
BLAIR          MOSUNNY   26  20  79 SE9       30.51S WCI  16
FREMONT        MOSUNNY   26  24  91 SE7       30.51S WCI  19
MILLARD        MOSUNNY   24  20  83 SE6       30.54S WCI  17
OFFUTT AFB     SUNNY     24  18  76 SE5       30.54S WCI  18
PLATTSMOUTH    MOSUNNY   24  20  82 SE3       30.53S
WAHOO          FAIR      24  22  90 S7        30.51F WCI  16
$$



USA.gov is the U.S. government's official web portal to all federal, state and local government web resources and services.